Ord, NE

11:08 PM CDT on March 25, 2017 (GMT -0500)
Sharp

Weather History for KODX - December, 2013

Change the Weather History Date:

Saturday, December 7, 2013

  Actual Average Record
Temperature  
Mean Temperature -1 °F 26 °F  
Max Temperature 8 °F 38 °F 60 °F (2015)
Min Temperature -11 °F 15 °F -11 °F (2013)
Degree Days  
Heating Degree Days 66 39  
Month to date heating degree days 332 262  
Since 1 July heating degree days 1812 1743  
Cooling Degree Days 0 0  
Month to date cooling degree days 0 0  
Year to date cooling degree days 907 845  
Moisture  
Dew Point -8 °F    
Average Humidity 67    
Maximum Humidity 83    
Minimum Humidity 50    
Precipitation  
Precipitation T in 0.04 in 0.50 in (1924)
Month to date precipitation T 0.31  
Year to date precipitation 24.35 24.66  
Sea Level Pressure  
Sea Level Pressure 30.63 in    
Wind  
Wind Speed 7 mph (SE)    
Max Wind Speed 16 mph    
Max Gust Speed 22 mph    
Visibility 9 miles    
Events Snow    
T = Trace of Precipitation, MM = Missing Value Source: NWS Daily Summary

Daily Weather History Graph

Daily Weather History Graph

Search for Another Location

Airport or City:

Trip Planner

Search our weather history database for the weather conditions in past years. The results will help you decide how hot, cold, wet, or windy it might be!

Date:

Astronomy

Dec. 07, 2013 Rise Set
Actual Time 7:49 AM CST 5:05 PM CST
Civil Twilight 7:18 AM CST 5:36 PM CST
Nautical Twilight 6:43 AM CST 6:11 PM CST
Astronomical Twilight 6:09 AM CST 6:45 PM CST
Moon 11:32 AM CST (12/7) 10:52 PM CST (12/7)
Length of Visible Light 10h 18m
Length of Day
9h 16m
Waxing Crescent, 29% of the Moon is Illuminated
Dec 7
Waxing Crescent
Dec 9
First Quarter
Dec 17
Full
Dec 25
Last Quarter
Jan 1
New

Hourly Weather History & Observations

Time (CST) Temp. Windchill Dew Point Humidity Pressure Visibility Wind Dir Wind Speed Gust Speed Precip Events Conditions
12:53 AM -8.0 °F -19.2 °F -14.1 °F 75% 30.78 in 10.0 mi NNW 4.6 mph - N/A   Clear
1:53 AM -8.0 °F - -13.0 °F 79% 30.77 in 10.0 mi Calm Calm - N/A   Clear
2:53 AM -9.0 °F -18.2 °F -14.1 °F 79% 30.77 in 10.0 mi NW 3.5 mph - N/A   Clear
3:53 AM -9.9 °F - -16.1 °F 74% 30.76 in 10.0 mi Calm Calm - N/A   Clear
4:53 AM -9.9 °F - -15.0 °F 78% 30.76 in 10.0 mi Calm Calm - N/A   Clear
5:53 AM -9.0 °F - -15.0 °F 75% 30.76 in 10.0 mi Calm Calm - N/A   Clear
6:53 AM -9.0 °F - -14.1 °F 79% 30.78 in 10.0 mi Calm Calm - N/A   Clear
7:53 AM -7.1 °F - -11.9 °F 79% 30.78 in 10.0 mi Calm Calm - N/A   Clear
8:53 AM -4.0 °F - -11.0 °F 72% 30.78 in 10.0 mi Calm Calm - N/A   Clear
9:53 AM -2.0 °F -10.1 °F -9.0 °F 72% 30.78 in 10.0 mi ESE 3.5 mph - N/A   Clear
10:53 AM 1.0 °F -15.8 °F -7.1 °F 69% 30.76 in 10.0 mi SE 11.5 mph - N/A   Clear
11:53 AM 3.0 °F -13.3 °F -7.1 °F 63% 30.72 in 10.0 mi SSE 11.5 mph - 0.00 in   Clear
12:53 PM 6.1 °F -8.7 °F -6.0 °F 58% 30.66 in 10.0 mi SSE 10.4 mph - 0.00 in   Clear
1:53 PM 7.0 °F -8.3 °F -7.1 °F 53% 30.62 in 10.0 mi SSE 11.5 mph - 0.00 in   Clear
2:53 PM 8.1 °F -5.3 °F -7.1 °F 50% 30.58 in 10.0 mi SE 9.2 mph - N/A   Mostly Cloudy
3:53 PM 8.1 °F -4.3 °F -7.1 °F 50% 30.54 in 10.0 mi SE 8.1 mph - N/A   Overcast
4:46 PM 6.8 °F -5.9 °F -2.2 °F 67% 30.35 in 2.0 mi ESE 8.1 mph - 0.00 in Snow Light Snow
4:53 PM 7.0 °F -4.5 °F -2.9 °F 64% 30.53 in 3.0 mi ESE 6.9 mph - 0.00 in Snow Light Snow
5:53 PM 7.0 °F -5.7 °F -4.0 °F 61% 30.52 in 10.0 mi ESE 8.1 mph - 0.00 in   Overcast
6:53 PM 7.0 °F -6.6 °F -6.0 °F 55% 30.52 in 10.0 mi SE 9.2 mph - N/A   Overcast
7:53 PM 7.0 °F -7.5 °F -6.0 °F 55% 30.51 in 10.0 mi ESE 10.4 mph - N/A   Overcast
8:53 PM 7.0 °F -9.1 °F -4.0 °F 61% 30.48 in 10.0 mi ESE 12.7 mph - 0.00 in   Overcast
9:53 PM 7.0 °F -8.3 °F -0.0 °F 73% 30.45 in 5.0 mi ESE 11.5 mph - 0.00 in Snow Light Snow
10:53 PM 6.1 °F -11.6 °F -0.0 °F 76% 30.41 in 4.0 mi ESE 15.0 mph 19.6 mph 0.00 in Snow Light Snow
11:53 PM 6.1 °F -6.8 °F 1.0 °F 80% 30.38 in 4.0 mi SE 8.1 mph 17.3 mph 0.00 in Snow Light Snow